Location: *
(46.4000°N, 12.6667°E)
Time: 13:58:10
(UTC+00:00)

X-37B - Pass Details

Date: 10 December 2021
Orbit: 334 x 337 km, 45.0° (Epoch: 11 January)

Event Time Altitude Azimuth Distance (km) Brightness Sun altitude
Rises 16:39:36 0° 242° (WSW) 2,099 6.3 -12.7°
Reaches altitude 10° 16:41:39 10° 235° (SW) 1,264 4.5 -13.0°
Maximum altitude 16:44:20 40° 164° (SSE) 510 1.2 -13.5°
Enters shadow 16:45:33 25° 110° (ESE) 729 1.5 -13.7°
